Twin Falls, ID

8:25 AM MST on January 24, 2017 (GMT -0700)
Joslin Field-Magic Valley Regional

Weather History for KTWF - April, 2014

Change the Weather History Date:

Monday, April 14, 2014

  Actual Average Record
Temperature  
Mean Temperature 46 °F -  
Max Temperature 63 °F 60 °F 81 °F (2008)
Min Temperature 28 °F 35 °F 25 °F (2005)
Degree Days  
Heating Degree Days 19 18  
Month to date heating degree days 220 262  
Since 1 July heating degree days 5079 5551  
Cooling Degree Days 0 0  
Month to date cooling degree days 0 0  
Year to date cooling degree days 0 0  
Moisture  
Dew Point 17 °F    
Average Humidity 33    
Maximum Humidity 49    
Minimum Humidity 17    
Precipitation  
Precipitation 0.00 in 0.04 in 0.26 in (2003)
Month to date precipitation 0.06 0.50  
Year to date precipitation 4.19 3.33  
Sea Level Pressure  
Sea Level Pressure 30.18 in    
Wind  
Wind Speed 8 mph (ENE)    
Max Wind Speed 13 mph    
Max Gust Speed 16 mph    
Visibility 10 miles    
Events      
T = Trace of Precipitation, MM = Missing Value Source: NWS Daily Summary

Daily Weather History Graph

Daily Weather History Graph

Search for Another Location

Airport or City:

Trip Planner

Search our weather history database for the weather conditions in past years. The results will help you decide how hot, cold, wet, or windy it might be!

Date:

Astronomy

Apr. 14, 2014 Rise Set
Actual Time 6:58 AM MDT 8:18 PM MDT
Civil Twilight 6:29 AM MDT 8:48 PM MDT
Nautical Twilight 5:54 AM MDT 9:23 PM MDT
Astronomical Twilight 5:17 AM MDT 10:00 PM MDT
Moon 8:01 PM MDT (4/14) 6:33 AM MDT (4/14)
Length of Visible Light 14h 18m
Length of Day
13h 20m
Full, 100% of the Moon is Illuminated
Apr 14
Full
Apr 15
Full
Apr 22
Last Quarter
Apr 29
New
May 6
First Quarter

Hourly Weather History & Observations

Time (MDT) Temp. Windchill Dew Point Humidity Pressure Visibility Wind Dir Wind Speed Gust Speed Precip Events Conditions
12:53 AM 39.0 °F 31.4 °F 10.0 °F 30% 30.23 in 10.0 mi East 12.7 mph - N/A   Clear
1:53 AM 37.0 °F 28.9 °F 9.0 °F 31% 30.25 in 10.0 mi East 12.7 mph - N/A   Clear
3:53 AM 32.0 °F 23.6 °F 10.0 °F 40% 30.26 in 10.0 mi East 10.4 mph - N/A   Clear
4:53 AM 30.9 °F 22.8 °F 10.9 °F 43% 30.27 in 10.0 mi East 9.2 mph - N/A   Clear
6:53 AM 28.9 °F 21.1 °F 10.9 °F 47% 30.29 in 10.0 mi East 8.1 mph - N/A   Clear
7:53 AM 32.0 °F 24.2 °F 15.1 °F 50% 30.30 in 10.0 mi East 9.2 mph - N/A   Clear
8:53 AM 36.0 °F 30.3 °F 17.1 °F 46% 30.30 in 10.0 mi ENE 6.9 mph - N/A   Clear
9:53 AM 42.1 °F 37.7 °F 19.0 °F 40% 30.29 in 10.0 mi Variable 6.9 mph - N/A   Clear
10:53 AM 46.9 °F - 17.1 °F 30% 30.27 in 10.0 mi ENE 4.6 mph - N/A   Clear
11:53 AM 52.0 °F - 16.0 °F 24% 30.25 in 10.0 mi Calm Calm - N/A   Clear
12:53 PM 55.0 °F - 18.0 °F 23% 30.22 in 10.0 mi NE 4.6 mph - N/A   Clear
1:53 PM 57.9 °F - 19.0 °F 22% 30.19 in 10.0 mi Variable 6.9 mph - N/A   Clear
2:53 PM 59.0 °F - 19.0 °F 21% 30.17 in 10.0 mi NE 6.9 mph - N/A   Clear
3:53 PM 63.0 °F - 19.9 °F 19% 30.14 in 10.0 mi NNW 6.9 mph - N/A   Clear
4:53 PM 61.0 °F - 17.1 °F 18% 30.11 in 10.0 mi Variable 5.8 mph - N/A   Clear
5:53 PM 62.1 °F - 17.1 °F 18% 30.09 in 10.0 mi NW 9.2 mph - N/A   Clear
6:53 PM 60.1 °F - 15.1 °F 17% 30.08 in 10.0 mi NW 6.9 mph - N/A   Clear
7:53 PM 55.0 °F - 19.0 °F 24% 30.06 in 10.0 mi NE 4.6 mph - N/A   Clear
8:53 PM 42.1 °F 38.4 °F 21.9 °F 45% 30.09 in 10.0 mi East 5.8 mph - N/A   Clear
9:53 PM 42.1 °F 35.7 °F 21.0 °F 43% 30.08 in 10.0 mi SE 11.5 mph - N/A   Clear
10:53 PM 42.1 °F 36.6 °F 21.0 °F 43% 30.04 in 10.0 mi South 9.2 mph - N/A   Clear
11:53 PM 42.1 °F 37.1 °F 21.0 °F 43% 30.01 in 10.0 mi South 8.1 mph - N/A   Clear